Owensboro, KY

9:49 PM CDT on May 22, 2017 (GMT -0500)
Owensboro-Daviess County

Weather History for KOWB - March, 2013

Change the Weather History Date:

Thursday, March 28, 2013

  Actual Average Record
Temperature  
Mean Temperature 44 °F -  
Max Temperature 54 °F 66 °F 82 °F (1985)
Min Temperature 34 °F 42 °F 25 °F (1955)
Degree Days  
Heating Degree Days 21    
Moisture  
Dew Point 28 °F    
Average Humidity 55    
Maximum Humidity 82    
Minimum Humidity 33    
Precipitation  
Precipitation 0.00 in - - ()
Sea Level Pressure  
Sea Level Pressure 30.36 in    
Wind  
Wind Speed 2 mph (NNE)    
Max Wind Speed 7 mph    
Max Gust Speed -    
Visibility 10 miles    
Events      
Averages and records for this station are not official NWS values.
T = Trace of Precipitation, MM = Missing Value Source: NWS Daily Summary

Daily Weather History Graph

Daily Weather History Graph

Search for Another Location

Airport or City:

Trip Planner

Search our weather history database for the weather conditions in past years. The results will help you decide how hot, cold, wet, or windy it might be!

Date:

Astronomy

Mar. 28, 2013 Rise Set
Actual Time 6:39 AM CDT 7:08 PM CDT
Civil Twilight 6:13 AM CDT 7:34 PM CDT
Nautical Twilight 5:42 AM CDT 8:05 PM CDT
Astronomical Twilight 5:10 AM CDT 8:37 PM CDT
Moon 8:56 PM CDT (3/28) 7:09 AM CDT (3/28)
Length of Visible Light 13h 21m
Length of Day
12h 28m
Full, 98% of the Moon is Illuminated
Mar 28
Full
Apr 2
Last Quarter
Apr 10
New
Apr 18
First Quarter
Apr 25
Full

Hourly Weather History & Observations

Time (CDT) Temp. Windchill Dew Point Humidity Pressure Visibility Wind Dir Wind Speed Gust Speed Precip Events Conditions
12:56 AM 34.0 °F - 29.1 °F 82% 30.35 in 10.0 mi Calm Calm - N/A   Partly Cloudy
1:56 AM 36.0 °F - 28.0 °F 73% 30.36 in 10.0 mi Calm Calm - N/A   Partly Cloudy
2:56 AM 34.9 °F 32.0 °F 28.0 °F 76% 30.36 in 10.0 mi North 3.5 mph - N/A   Mostly Cloudy
3:56 AM 34.9 °F - 28.0 °F 76% 30.36 in 10.0 mi Calm Calm - N/A   Mostly Cloudy
4:56 AM 34.9 °F 30.8 °F 28.0 °F 76% 30.35 in 10.0 mi NE 4.6 mph - N/A   Overcast
5:56 AM 36.0 °F 33.3 °F 27.1 °F 70% 30.37 in 10.0 mi NE 3.5 mph - N/A   Clear
6:56 AM 34.9 °F - 27.1 °F 73% 30.39 in 10.0 mi Calm Calm - N/A   Clear
7:56 AM 37.9 °F - 32.0 °F 79% 30.40 in 10.0 mi Calm Calm - N/A   Clear
8:56 AM 39.9 °F 35.1 °F 27.1 °F 60% 30.41 in 10.0 mi ENE 6.9 mph - N/A   Clear
9:56 AM 43.0 °F 39.5 °F 26.1 °F 51% 30.42 in 10.0 mi Variable 5.8 mph - N/A   Clear
10:56 AM 45.0 °F 41.8 °F 24.1 °F 44% 30.42 in 10.0 mi Variable 5.8 mph - N/A   Clear
11:56 AM 47.8 °F - 23.0 °F 38% 30.41 in 10.0 mi Variable 3.5 mph - N/A   Clear
12:56 PM 50.0 °F - 28.0 °F 43% 30.40 in 10.0 mi NNW 5.8 mph - N/A   Clear
1:56 PM 50.0 °F - 25.2 °F 38% 30.37 in 10.0 mi Calm Calm - N/A   Clear
2:56 PM 54.9 °F - 28.0 °F 36% 30.34 in 10.0 mi Variable 4.6 mph - N/A   Clear
3:56 PM 54.0 °F - 26.1 °F 34% 30.32 in 10.0 mi Variable 5.8 mph - N/A   Clear
4:56 PM 54.9 °F - 28.0 °F 36% 30.32 in 10.0 mi Variable 3.5 mph - N/A   Clear
5:56 PM 54.9 °F - 26.1 °F 33% 30.31 in 10.0 mi Calm Calm - N/A   Clear
6:56 PM 52.0 °F - 26.1 °F 37% 30.31 in 10.0 mi Variable 3.5 mph - N/A   Clear
7:56 PM 48.9 °F - 25.2 °F 40% 30.30 in 10.0 mi Variable 4.6 mph - N/A   Clear
8:56 PM 46.9 °F - 28.0 °F 48% 30.32 in 10.0 mi Calm Calm - N/A   Mostly Cloudy
9:56 PM 45.0 °F - 31.1 °F 58% 30.33 in 10.0 mi Calm Calm - N/A   Mostly Cloudy
10:56 PM 45.9 °F 44.6 °F 31.1 °F 56% 30.32 in 10.0 mi East 3.5 mph - N/A   Scattered Clouds
11:56 PM 45.9 °F - 31.1 °F 56% 30.32 in 10.0 mi Calm Calm - N/A   Partly Cloudy